Regional Weather Roundup
Issued by NWS

Home | Current Version | Previous Version | Graphics & Text | Print | Product List | Glossary On
Versions: 1 2 3 4 5 6 7 8 9 10 11 12 13 14 15 16 17 18 19 20 21 22 23 24 25 26 27 28 29 30 31 32 33 34 35 36 37 38 39 40 41 42 43 44 45 46 47 48 49 50
876
ASUS43 KMKX 191611
RWRWI

WISCONSIN REGIONAL WEATHER ROUNDUP
NATIONAL WEATHER SERVICE MILWAUKEE/SULLIVAN WI
1000 AM CST SUN NOV 19 2017

NOTE: "FAIR" INDICATES FEW OR NO CLOUDS BELOW 12,000 FEET WITH NO
SIGNIFICANT WEATHER AND/OR OBSTRUCTIONS TO VISIBILITY.

WIZ001-002-006>008-014>016-023>028-191700-
NORTHWEST WISCONSIN

CITY           SKY/WX    TMP DP  RH WIND       PRES   REMARKS
SUPERIOR ARPT  MOSUNNY   19  10  70 W9        30.01F WCI   7
ASHLAND        MOSUNNY   19   9  65 SW10      29.99S WCI   7
HAYWARD        MOSUNNY   18   8  65 VRB6      29.99S WCI  10
SIREN          MOSUNNY   21  11  65 W8        30.03S WCI  11
CUMBERLAND     CLOUDY    19  10  68 W10       30.01S WCI   8
RICE LAKE      CLOUDY    21  11  65 W7        30.04S WCI  13
CHETEK         CLOUDY    22  10  61 W9        30.03S WCI  12
LADYSMITH      MOSUNNY   20  12  70 W10       30.02R WCI   9
EAU CLAIRE     MOSUNNY   22  10  60 W9        30.05S WCI  12
MENOMONIE      SUNNY     24  10  56 W8        30.06S WCI  14
NEW RICHMOND   SUNNY     24  11  57 SW8       30.04F WCI  15
OSCEOLA        MOSUNNY   24  13  64 W7        30.08F WCI  16
$$

WIZ003>005-009-010-017-018-191700-
NORTH CENTRAL WISCONSIN

CITY           SKY/WX    TMP DP  RH WIND       PRES   REMARKS
MANITOWISH WTR FLURRIES  14  11  86 W7        29.91S WCI   4
ARBOR VITAE    FLURRIES  17  11  79 NW8       29.91S WCI   6
WOODRUFF       FLURRIES  17  11  79 NW8       29.91S WCI   6
RHINELANDER    CLOUDY   N/A N/A N/A W12       29.93R
EAGLE RIVER    LGT SNOW  16  10  77 W10       29.90R WCI   3
LAND O LAKES   LGT SNOW  17  12  82 W13G18    29.91R WCI   3
PHILLIPS       SUNNY     17   9  68 W8        29.95S WCI   7
TOMAHAWK       SUNNY     18   8  65 NW9       29.95R WCI   7
MEDFORD        SUNNY     19   9  65 W13       29.97R WCI   6
MERRILL        SUNNY     20  10  65 W9        29.97R WCI   9
$$

WIZ029-030-035-036-043>047-191700-
CENTRAL WISCONSIN

CITY           SKY/WX    TMP DP  RH WIND       PRES   REMARKS
WAUSAU         SUNNY     20   9  62 W15       29.97R WCI   6
MOSINEE        MOSUNNY   21  12  68 W14G21    29.98R WCI   8
MARSHFIELD     SUNNY     21  10  62 W13       29.99R WCI   9
STEVENS POINT  SUNNY     20   8  61 W9        30.00R WCI   9
WAUPACA        MOSUNNY   27  12  53 W8        30.00R WCI  19
WAUTOMA        SUNNY     24  11  57 W13       30.03R WCI  12
WISC RAPIDS    SUNNY     23  10  57 NW15      30.03R WCI  10
CAMP DOUGLAS   MOSUNNY   25  10  54 W14       30.07R WCI  13
$$

WIZ011>013-019>022-031-037>040-048>050-191700-
NORTHEAST WISCONSIN

CITY           SKY/WX    TMP DP  RH WIND       PRES   REMARKS
ANTIGO         MOSUNNY   19  11  69 NW10      29.93R WCI   8
SHAWANO        SUNNY     26  11  53 W8        29.97R WCI  18
OCONTO         CLOUDY    24  11  57 NW9       29.96S WCI  15
STURGEON BAY   FLURRIES  24  14  65 W14       29.95R WCI  12
GREEN BAY      MOSUNNY   26  15  63 W13       29.97S WCI  15
MANITOWOC      CLOUDY    27  16  63 NW13      29.98R WCI  16
APPLETON       MOSUNNY   25  10  54 NW15      29.95F WCI  12
CLINTONVILLE   SUNNY     25  10  54 NW13      29.98S WCI  13
OSHKOSH        SUNNY     25  14  63 W13       29.98R WCI  14
$$

WIZ032>034-041-042-053>061-191700-
SOUTHWEST WISCONSIN

CITY           SKY/WX    TMP DP  RH WIND       PRES   REMARKS
LA CROSSE      SUNNY     27  12  53 NW7       30.10S WCI  19
SPARTA         SUNNY     24  11  58 NW8       30.09R WCI  15
VIROQUA        SUNNY     23  15  73 W10       30.06R WCI  12
BOSCOBEL       SUNNY     28  12  51 W10       30.12R WCI  19
PRAIRIE DU CHI SUNNY     27  11  52 W9        30.13R WCI  17
PLATTEVILLE    SUNNY     26  16  67 W12       30.10R WCI  15
$$

WIZ056-057-062-063-064-067-068-191700-
SOUTH CENTRAL WISCONSIN

CITY           SKY/WX    TMP DP  RH WIND       PRES   REMARKS
REEDSBURG      SUNNY     24  11  57 NW12      30.06R WCI  13
BARABOO/DELLS  SUNNY     24  11  57 W13       30.05R WCI  12
LONE ROCK      SUNNY     27  14  58 NW13G21   30.10R WCI  16
MINERAL POINT  SUNNY     28  18  64 W10       30.07R WCI  19
MADISON        MOSUNNY   25  12  58 NW13G20   30.04S WCI  14
MIDDLETON      SUNNY     27  15  60 NW14      30.05S WCI  16
WATERTOWN      SUNNY     26  15  65 NW14      30.02S WCI  14
MONROE         SUNNY     27  14  59 W10G20    30.06R WCI  17
JANESVILLE     MOSUNNY   28  18  64 NW12G17   30.04R WCI  18
$$

WIZ051-052-058>065-066-070>072-191700-
SOUTHEAST WISCONSIN

CITY           SKY/WX    TMP DP  RH WIND       PRES   REMARKS
MILWAUKEE      MOSUNNY   29  15  56 W18       30.01R WCI  16
WAUKESHA       PTSUNNY   25  16  68 W14G21    30.01R WCI  13
MILWAUKEE/TIMM MOSUNNY   27  12  54 NW16G26   30.01R WCI  14
RACINE         MOSUNNY   29  16  58 W13G24    30.02R WCI  19
BURLINGTON     MOSUNNY   32  23  70 W14G20    30.02R WCI  22
KENOSHA        MOSUNNY   30  17  58 NW15      30.01R WCI  19
FOND DU LAC    MOSUNNY   26  13  57 W16       29.99R WCI  14
SHEBOYGAN      PTSUNNY   26  16  65 NW13G23   29.98R WCI  15
WEST BEND      PTSUNNY   27  14  59 W10       29.99R WCI  17
JUNEAU         MOSUNNY   24  14  66 W9        30.02S WCI  14
$$

LSZ147-162-191700-
LAKE SUPERIOR

STATION/POSITION TIME  TEMP    WIND        PRES    WAVE
                       AIR SEA DIR/SP/G            HT/PER
                 (UTC) (F)     (DEG/KT/KT) (MB)    (FT/S)
DEVILS ISLAND    1600   20     280/ 22/ 27 1015.8R
SAXON HARBOR     1530   19     240/  9/ 12 1015.2R
$$

LMZ867-665-643>646-191700-
LAKE MICHIGAN

STATION/POSITION TIME  TEMP    WIND        PRES    WAVE
                       AIR SEA DIR/SP/G            HT/PER
                 (UTC) (F)     (DEG/KT/KT) (MB)    (FT/S)
N MID LAKE BUOY  1550   28 48  300/ 17/ 23 1012.9R   4/ 5
NORTHPORT PIER   1551   26     310/ 17/ 26 1012.9R
KEWAUNEE LAKESHO 1548   26     300/ 10/ 18 1013.6R
SHEBOYGAN LAKESH 1600   26     300/ 17/ 21 1015.9R
PORT WASHINGTON  1530   27     310/  9/ 19 1016.6R
MILWAUKEE LAKESH 1550   27     300/ 14/ 17   N/A
S MID LAKE BUOY  1550   32 49  320/ 19/ 23 1015.6R   6/ 7
KENOSHA   LAKESH 1600   28     280/ 17/ 22 1016.6
$$

TC  - TEMPERATURE IN CELSIUS
VSB - VISIBILITY IN STATUTE MILES
WCI - WIND CHILL INDEX
HX  - HEAT INDEX





USA.gov is the U.S. government's official web portal to all federal, state and local government web resources and services.